| time (UTC) | temp F | wind direction | speed MPH | gust MPH | rain 1hr in | rain 24hr in | rain mn in | humidity % | barometer mb |
| 20260905082511 | 84 | 253 | 4.0 | 12.0 | 0.00 | 0.00 | 0.00 | 38 | 1019.4 |
| 20260905081511 | 84 | 247 | 6.0 | 12.0 | 0.00 | 0.00 | 0.00 | 38 | 1019.4 |
| 20260905073513 | 82 | 267 | 2.0 | 5.0 | 0.00 | 0.00 | 0.00 | 43 | 1019.3 |
| 20260905071028 | 81 | 209 | 0.0 | 1.0 | 0.00 | 0.00 | 0.00 | 42 | 1019.2 |
| 20260905070011 | 79 | 251 | 1.0 | 1.0 | 0.00 | 0.00 | 0.00 | 49 | 1019.2 |
| 20260905065027 | 79 | 251 | 0.0 | 1.0 | 0.00 | 0.00 | 0.00 | 48 | 1019.2 |
| 20260905063513 | 78 | 251 | 0.0 | 2.0 | 0.00 | 0.00 | 0.00 | 49 | 1019.2 |
| 20260905062032 | 77 | 251 | 0.0 | 2.0 | 0.00 | 0.00 | 0.00 | 50 | 1019.2 |
| 20260905060512 | 76 | 333 | 0.0 | 1.0 | 0.00 | 0.00 | 0.00 | 50 | 1019.1 |
| 20260905055028 | 77 | 359 | 0.0 | 0.0 | 0.00 | 0.00 | 0.00 | 49 | 1019.0 |
| 20260905053511 | 75 | 359 | 0.0 | 0.0 | 0.00 | 0.00 | 0.00 | 50 | 1018.9 |
| 20260905053028 | 74 | 359 | 0.0 | 1.0 | 0.00 | 0.00 | 0.00 | 51 | 1018.9 |
| 20260905052513 | 74 | 359 | 0.0 | 2.0 | 0.00 | 0.00 | 0.00 | 52 | 1018.9 |
| 20260905052026 | 73 | 359 | 0.0 | 1.0 | 0.00 | 0.00 | 0.00 | 54 | 1018.8 |
| 20260905051511 | 72 | 359 | 1.0 | 2.0 | 0.00 | 0.00 | 0.00 | 56 | 1018.7 |
| 20260905050511 | 72 | 301 | 0.0 | 1.0 | 0.00 | 0.00 | 0.00 | 55 | 1018.7 |
| 20260905044027 | 72 | 301 | 0.0 | 1.0 | 0.00 | 0.00 | 0.00 | 58 | 1018.3 |
| 20260905043511 | 72 | 301 | 0.0 | 1.0 | 0.00 | 0.00 | 0.00 | 57 | 1018.3 |
| 20260905043026 | 71 | 301 | 0.0 | 1.0 | 0.00 | 0.00 | 0.00 | 57 | 1018.3 |
| 20260905042026 | 71 | 301 | 0.0 | 1.0 | 0.00 | 0.00 | 0.00 | 58 | 1018.2 |
| 20260905040510 | 71 | 301 | 0.0 | 1.0 | 0.00 | 0.00 | 0.00 | 60 | 1018.2 |
| 20260905035511 | 71 | 301 | 0.0 | 1.0 | 0.00 | 0.00 | 0.00 | 61 | 1018.3 |
| 20260905035019 | 71 | 301 | 0.0 | 1.0 | 0.00 | 0.00 | 0.00 | 61 | 1018.2 |
| 20260905034019 | 71 | 301 | 1.0 | 2.0 | 0.00 | 0.00 | 0.00 | 62 | 1018.1 |
| 20260905032019 | 71 | 277 | 0.0 | 2.0 | 0.00 | 0.00 | 0.00 | 59 | 1018.1 |
| 20260905031510 | 71 | 266 | 1.0 | 3.0 | 0.00 | 0.00 | 0.00 | 60 | 1018.1 |
| 20260905031019 | 71 | 258 | 1.0 | 2.0 | 0.00 | 0.00 | 0.00 | 60 | 1018.2 |
| 20260905025512 | 71 | 261 | 1.0 | 2.0 | 0.00 | 0.00 | 0.00 | 64 | 1018.1 |
| 20260905024511 | 71 | 354 | 0.0 | 1.0 | 0.00 | 0.00 | 0.00 | 65 | 1018.1 |
| 20260905024019 | 71 | 354 | 0.0 | 0.0 | 0.00 | 0.00 | 0.00 | 65 | 1018.1 |
| 20260905021511 | 72 | 354 | 1.0 | 2.0 | 0.00 | 0.00 | 0.00 | 64 | 1018.2 |
| 20260905021020 | 72 | 289 | 0.0 | 1.0 | 0.00 | 0.00 | 0.00 | 64 | 1018.1 |
| 20260905020511 | 72 | 289 | 0.0 | 1.0 | 0.00 | 0.00 | 0.00 | 64 | 1018.1 |
| 20260905020011 | 72 | 289 | 1.0 | 2.0 | 0.00 | 0.00 | 0.00 | 64 | 1018.1 |
| 20260905015512 | 72 | 289 | 1.0 | 2.0 | 0.00 | 0.00 | 0.00 | 64 | 1018.1 |
| 20260905014511 | 72 | 51 | 0.0 | 1.0 | 0.00 | 0.00 | 0.00 | 65 | 1018.2 |
| 20260905013019 | 72 | 59 | 0.0 | 1.0 | 0.00 | 0.00 | 0.00 | 65 | 1018.3 |
| 20260905012019 | 72 | 70 | 1.0 | 2.0 | 0.00 | 0.00 | 0.00 | 64 | 1018.2 |
| 20260905011512 | 72 | 18 | 0.0 | 1.0 | 0.00 | 0.00 | 0.00 | 63 | 1018.2 |
| 20260905010011 | 72 | 40 | 0.0 | 1.0 | 0.00 | 0.00 | 0.00 | 63 | 1018.3 |
| 20260905005510 | 72 | 40 | 0.0 | 1.0 | 0.00 | 0.00 | 0.00 | 63 | 1018.2 |
| 20260905004021 | 73 | 40 | 0.0 | 1.0 | 0.00 | 0.00 | 0.00 | 63 | 1018.2 |
| 20260905002513 | 73 | 40 | 0.0 | 1.0 | 0.00 | 0.00 | 0.00 | 63 | 1018.2 |
| 20260905001513 | 73 | 40 | 0.0 | 1.0 | 0.00 | 0.00 | 0.00 | 63 | 1018.2 |
| 20260905000015 | 73 | 23 | 1.0 | 2.0 | 0.00 | 0.00 | 0.00 | 61 | 1018.2 |
| 20260904235021 | 74 | 290 | 1.0 | 1.0 | 0.00 | 0.00 | 0.00 | 61 | 1018.3 |
| 20260904234515 | 74 | 291 | 0.0 | 1.0 | 0.00 | 0.00 | 0.00 | 60 | 1018.3 |
| 20260904234022 | 74 | 290 | 0.0 | 1.0 | 0.00 | 0.00 | 0.00 | 60 | 1018.4 |
| 20260904233022 | 74 | 290 | 0.0 | 1.0 | 0.00 | 0.00 | 0.00 | 60 | 1018.5 |
| 20260904232513 | 74 | 290 | 0.0 | 0.0 | 0.00 | 0.00 | 0.00 | 59 | 1018.5 |
| 20260904230013 | 74 | 288 | 1.0 | 2.0 | 0.00 | 0.00 | 0.00 | 58 | 1018.6 |
| 20260904225514 | 74 | 285 | 1.0 | 2.0 | 0.00 | 0.00 | 0.00 | 58 | 1018.7 |
| 20260904225022 | 74 | 283 | 1.0 | 1.0 | 0.00 | 0.00 | 0.00 | 57 | 1018.7 |
| 20260904224513 | 74 | 285 | 1.0 | 2.0 | 0.00 | 0.00 | 0.00 | 57 | 1018.6 |
| 20260904224021 | 74 | 276 | 0.0 | 1.0 | 0.00 | 0.00 | 0.00 | 58 | 1018.8 |
| 20260904223514 | 74 | 276 | 0.0 | 1.0 | 0.00 | 0.00 | 0.00 | 57 | 1018.8 |
| 20260904223021 | 74 | 276 | 0.0 | 1.0 | 0.00 | 0.00 | 0.00 | 57 | 1018.8 |
| 20260904221513 | 75 | 287 | 1.0 | 3.0 | 0.00 | 0.00 | 0.00 | 56 | 1018.8 |
| 20260904221021 | 75 | 251 | 1.0 | 3.0 | 0.00 | 0.00 | 0.00 | 57 | 1018.9 |
| 20260904220515 | 75 | 264 | 1.0 | 3.0 | 0.00 | 0.00 | 0.00 | 59 | 1018.8 |
| 20260904215513 | 75 | 316 | 0.0 | 1.0 | 0.00 | 0.00 | 0.00 | 58 | 1018.9 |
| 20260904215021 | 76 | 316 | 0.0 | 2.0 | 0.00 | 0.00 | 0.00 | 57 | 1018.8 |
| 20260904214022 | 76 | 28 | 1.0 | 2.0 | 0.00 | 0.00 | 0.00 | 58 | 1018.9 |
| 20260904213021 | 75 | 66 | 1.0 | 2.0 | 0.00 | 0.00 | 0.00 | 57 | 1018.8 |
| 20260904211021 | 75 | 23 | 1.0 | 2.0 | 0.00 | 0.00 | 0.00 | 56 | 1019.0 |
| 20260904205513 | 75 | 66 | 2.0 | 3.0 | 0.00 | 0.00 | 0.00 | 58 | 1018.8 |
| 20260904204021 | 75 | 324 | 1.0 | 2.0 | 0.00 | 0.00 | 0.00 | 60 | 1019.0 |
| 20260904203513 | 75 | 310 | 1.0 | 2.0 | 0.00 | 0.00 | 0.00 | 60 | 1019.0 |
| 20260904203021 | 75 | 294 | 1.0 | 3.0 | 0.00 | 0.00 | 0.00 | 61 | 1019.1 |
| 20260904202513 | 75 | 299 | 2.0 | 5.0 | 0.00 | 0.00 | 0.00 | 61 | 1019.1 |
| 20260904202021 | 75 | 283 | 2.0 | 3.0 | 0.00 | 0.00 | 0.00 | 62 | 1019.1 |
| 20260904200513 | 75 | 324 | 3.0 | 3.0 | 0.00 | 0.00 | 0.00 | 63 | 1019.1 |
| 20260904200013 | 75 | 308 | 2.0 | 3.0 | 0.00 | 0.00 | 0.00 | 63 | 1019.1 |
| 20260904194021 | 76 | 312 | 2.0 | 3.0 | 0.00 | 0.00 | 0.00 | 63 | 1019.0 |
| 20260904193513 | 76 | 293 | 3.0 | 3.0 | 0.00 | 0.00 | 0.00 | 63 | 1018.9 |
| 20260904193021 | 76 | 307 | 2.0 | 3.0 | 0.00 | 0.00 | 0.00 | 63 | 1018.9 |
| 20260904192021 | 76 | 320 | 3.0 | 5.0 | 0.00 | 0.00 | 0.00 | 63 | 1018.8 |
| 20260904191020 | 76 | 296 | 3.0 | 7.0 | 0.00 | 0.00 | 0.00 | 63 | 1018.7 |
| 20260904190013 | 76 | 299 | 3.0 | 5.0 | 0.00 | 0.00 | 0.00 | 64 | 1018.7 |
| 20260904185513 | 76 | 283 | 3.0 | 7.0 | 0.00 | 0.00 | 0.00 | 64 | 1018.6 |
| 20260904184514 | 77 | 284 | 3.0 | 8.0 | 0.00 | 0.00 | 0.00 | 63 | 1018.4 |
| 20260904183021 | 77 | 296 | 3.0 | 5.0 | 0.00 | 0.00 | 0.00 | 62 | 1018.2 |
| 20260904182021 | 77 | 265 | 3.0 | 7.0 | 0.00 | 0.00 | 0.00 | 62 | 1018.0 |
| 20260904181513 | 77 | 302 | 3.0 | 7.0 | 0.00 | 0.00 | 0.00 | 61 | 1017.8 |
| 20260904174513 | 78 | 285 | 3.0 | 9.0 | 0.00 | 0.00 | 0.00 | 60 | 1017.4 |
| 20260904174028 | 78 | 243 | 4.0 | 9.0 | 0.00 | 0.00 | 0.00 | 60 | 1017.4 |
| 20260904173028 | 79 | 266 | 5.0 | 8.0 | 0.00 | 0.00 | 0.00 | 59 | 1017.4 |
| 20260904171030 | 80 | 259 | 5.0 | 9.0 | 0.00 | 0.00 | 0.00 | 56 | 1017.1 |
| 20260904165513 | 80 | 245 | 6.0 | 12.0 | 0.00 | 0.00 | 0.00 | 55 | 1017.1 |
| 20260904164513 | 81 | 259 | 6.0 | 12.0 | 0.00 | 0.00 | 0.00 | 55 | 1017.1 |
| 20260904163030 | 81 | 261 | 5.0 | 12.0 | 0.00 | 0.00 | 0.00 | 54 | 1017.0 |
| 20260904162514 | 81 | 258 | 7.0 | 15.0 | 0.00 | 0.00 | 0.00 | 54 | 1017.0 |
| 20260904162028 | 82 | 268 | 8.0 | 13.0 | 0.00 | 0.00 | 0.00 | 54 | 1017.1 |
| 20260904161514 | 82 | 255 | 7.0 | 14.0 | 0.00 | 0.00 | 0.00 | 53 | 1017.0 |
| 20260904160013 | 82 | 103 | 8.0 | 14.0 | 0.00 | 0.00 | 0.00 | 52 | 1017.0 |
| 20260904155513 | 82 | 259 | 6.0 | 12.0 | 0.00 | 0.00 | 0.00 | 53 | 1016.9 |
| 20260904153512 | 82 | 250 | 8.0 | 16.0 | 0.00 | 0.00 | 0.00 | 52 | 1016.9 |
| 20260904152027 | 82 | 258 | 10.0 | 15.0 | 0.00 | 0.00 | 0.00 | 52 | 1016.9 |
| 20260904151513 | 82 | 262 | 7.0 | 16.0 | 0.00 | 0.00 | 0.00 | 52 | 1016.9 |
| 20260904150012 | 83 | 203 | 9.0 | 18.0 | 0.00 | 0.00 | 0.00 | 49 | 1016.9 |
| 20260904145513 | 83 | 224 | 7.0 | 15.0 | 0.00 | 0.00 | 0.00 | 50 | 1016.8 |
| 20260904145027 | 83 | 249 | 5.0 | 14.0 | 0.00 | 0.00 | 0.00 | 50 | 1016.8 |
| 20260904144513 | 83 | 256 | 10.0 | 16.0 | 0.00 | 0.00 | 0.00 | 49 | 1016.8 |
| 20260904144028 | 84 | 230 | 8.0 | 14.0 | 0.00 | 0.00 | 0.00 | 48 | 1016.9 |
| 20260904143513 | 84 | 226 | 9.0 | 14.0 | 0.00 | 0.00 | 0.00 | 47 | 1016.7 |
| 20260904143028 | 85 | 240 | 9.0 | 15.0 | 0.00 | 0.00 | 0.00 | 46 | 1016.8 |
| 20260904142031 | 85 | 313 | 10.0 | 17.0 | 0.00 | 0.00 | 0.00 | 45 | 1016.8 |
| 20260904141513 | 85 | 110 | 10.0 | 22.0 | 0.00 | 0.00 | 0.00 | 46 | 1016.7 |
| 20260904141030 | 85 | 266 | 7.0 | 16.0 | 0.00 | 0.00 | 0.00 | 46 | 1016.7 |
| 20260904140013 | 85 | 243 | 12.0 | 21.0 | 0.00 | 0.00 | 0.00 | 44 | 1016.3 |
| 20260904135512 | 86 | 283 | 9.0 | 18.0 | 0.00 | 0.00 | 0.00 | 43 | 1016.4 |
| 20260904134029 | 87 | 226 | 10.0 | 16.0 | 0.00 | 0.00 | 0.00 | 43 | 1016.2 |
| 20260904133031 | 87 | 210 | 9.0 | 17.0 | 0.00 | 0.00 | 0.00 | 43 | 1016.2 |
| 20260904132514 | 87 | 262 | 9.0 | 20.0 | 0.00 | 0.00 | 0.00 | 43 | 1016.2 |
| 20260904131512 | 88 | 200 | 9.0 | 17.0 | 0.00 | 0.00 | 0.00 | 42 | 1016.3 |
| 20260904130513 | 87 | 234 | 10.0 | 15.0 | 0.00 | 0.00 | 0.00 | 42 | 1016.4 |
| 20260904130015 | 87 | 214 | 10.0 | 17.0 | 0.00 | 0.00 | 0.00 | 42 | 1016.4 |
| 20260904125029 | 88 | 250 | 10.0 | 17.0 | 0.00 | 0.00 | 0.00 | 41 | 1016.3 |
| 20260904124513 | 87 | 226 | 8.0 | 15.0 | 0.00 | 0.00 | 0.00 | 39 | 1016.2 |
| 20260904122513 | 87 | 241 | 6.0 | 16.0 | 0.00 | 0.00 | 0.00 | 41 | 1016.5 |
| 20260904122029 | 87 | 283 | 10.0 | 17.0 | 0.00 | 0.00 | 0.00 | 40 | 1016.4 |
| 20260904121512 | 88 | 240 | 7.0 | 17.0 | 0.00 | 0.00 | 0.00 | 38 | 1016.5 |
| 20260904121030 | 89 | 243 | 6.0 | 13.0 | 0.00 | 0.00 | 0.00 | 34 | 1016.5 |
| 20260904120013 | 90 | 256 | 4.0 | 12.0 | 0.00 | 0.00 | 0.00 | 32 | 1016.5 |
| 20260904115029 | 90 | 80 | 6.0 | 12.0 | 0.00 | 0.00 | 0.00 | 33 | 1016.5 |
| 20260904113514 | 88 | 107 | 3.0 | 9.0 | 0.00 | 0.00 | 0.00 | 35 | 1016.7 |
| 20260904112513 | 90 | 289 | 5.0 | 10.0 | 0.00 | 0.00 | 0.00 | 33 | 1016.7 |
| 20260904112029 | 88 | 167 | 4.0 | 13.0 | 0.00 | 0.00 | 0.00 | 34 | 1016.8 |
| 20260904111030 | 88 | 337 | 2.0 | 10.0 | 0.00 | 0.00 | 0.00 | 35 | 1016.8 |
| 20260904110014 | 88 | 216 | 5.0 | 10.0 | 0.00 | 0.00 | 0.00 | 34 | 1016.8 |
| 20260904105512 | 88 | 256 | 5.0 | 10.0 | 0.00 | 0.00 | 0.00 | 34 | 1016.8 |
| 20260904105030 | 88 | 64 | 5.0 | 9.0 | 0.00 | 0.00 | 0.00 | 36 | 1016.9 |
| 20260904104512 | 87 | 215 | 6.0 | 10.0 | 0.00 | 0.00 | 0.00 | 36 | 1017.0 |
| 20260904103512 | 87 | 81 | 4.0 | 9.0 | 0.00 | 0.00 | 0.00 | 36 | 1017.0 |
| 20260904102029 | 87 | 89 | 3.0 | 8.0 | 0.00 | 0.00 | 0.00 | 37 | 1017.1 |
| 20260904101512 | 86 | 97 | 5.0 | 9.0 | 0.00 | 0.00 | 0.00 | 37 | 1017.2 |
| 20260904101029 | 86 | 12 | 4.0 | 7.0 | 0.00 | 0.00 | 0.00 | 38 | 1017.1 |
| 20260904100013 | 86 | 105 | 2.0 | 8.0 | 0.00 | 0.00 | 0.00 | 38 | 1017.3 |
| 20260904095514 | 86 | 85 | 3.0 | 9.0 | 0.00 | 0.00 | 0.00 | 37 | 1017.3 |
| 20260904095028 | 85 | 113 | 2.0 | 8.0 | 0.00 | 0.00 | 0.00 | 40 | 1017.3 |
| 20260904094514 | 85 | 95 | 4.0 | 8.0 | 0.00 | 0.00 | 0.00 | 39 | 1017.4 |
| 20260904093514 | 84 | 176 | 3.0 | 7.0 | 0.00 | 0.00 | 0.00 | 42 | 1017.6 |
| 20260904090012 | 83 | 98 | 1.0 | 5.0 | 0.00 | 0.00 | 0.00 | 42 | 1017.4 |
| 20260904085514 | 83 | 70 | 4.0 | 8.0 | 0.00 | 0.00 | 0.00 | 41 | 1017.4 |
| 20260904085028 | 84 | 76 | 2.0 | 3.0 | 0.00 | 0.00 | 0.00 | 41 | 1017.5 |
| 20260904084028 | 82 | 92 | 4.0 | 9.0 | 0.00 | 0.00 | 0.00 | 43 | 1017.5 |